Theta_e
323 323 324 324 324 324 324 326 327 328 329 329 330 331 334 334 333 331 333 332 331 330 329 329 328 329 330 330 329 332 332 332 330 330 329 329 331 331 331 331 330 330 329 327 327 329 328 330 330 328 327 329 329 328 328 328 325 324 325 324 324 324 324 324 324 324 323 321 324 324 325 328 327 326 325 326 326 327 328 328 328 327 327 328 328
322 321 323 324 323 323 324 326 327 326 328 328 329 332 333 334 333 332 332 332 331 331 330 330 330 330 330 330 331 331 332 330 329 328 327 328 329 330 331 330 329 329 329 327 328 329 327 328 329 328 329 330 330 330 330 329 325 324 323 321 323 324 323 324 323 318 318 320 319 319 321 323 324 325 326 325 326 327 327 327 327 327 327 327 328
320 321 323 323 323 323 323 325 326 328 329 330 331 332 332 332 333 332 332 332 331 332 331 330 331 332 332 331 331 329 330 330 326 326 329 327 327 329 330 329 329 328 329 329 328 328 328 329 329 329 330 331 329 329 329 327 325 324 322 322 320 323 323 322 321 320 316 317 319 318 316 316 319 322 324 325 326 326 327 326 326 327 327 327 327
318 319 321 322 322 322 321 322 324 328 329 330 331 331 332 332 332 332 332 332 332 332 332 332 332 331 330 331 330 329 326 327 324 324 325 326 325 326 327 328 328 328 328 329 328 327 328 328 329 329 329 331 329 328 327 327 326 324 321 321 322 320 321 322 323 322 319 320 314 313 315 316 313 316 318 321 326 326 326 325 327 326 326 327 328
318 320 321 320 319 319 320 321 322 326 328 330 331 331 332 332 332 333 332 332 332 332 331 330 329 326 326 326 325 322 323 321 322 320 321 325 324 324 325 326 328 328 328 328 328 326 327 328 328 328 328 329 329 328 327 328 328 325 323 322 322 321 318 320 322 322 320 322 317 313 313 312 313 316 318 318 321 323 325 326 326 326 325 326 327
320 320 320 320 319 318 320 320 323 325 327 330 331 332 332 332 332 332 332 331 331 331 329 329 328 325 323 322 320 317 318 320 321 321 319 323 324 320 324 325 327 327 326 327 328 326 326 327 328 327 327 328 327 327 328 328 328 327 324 323 321 321 321 319 320 321 322 322 319 319 315 313 312 316 316 311 316 320 323 324 325 324 326 326 325
320 319 319 318 318 319 320 320 323 325 326 329 330 331 332 332 332 332 331 330 331 329 329 328 325 323 323 323 322 321 321 317 317 319 322 319 320 322 323 323 325 326 325 325 325 326 325 326 327 327 327 326 327 326 325 327 328 328 327 324 322 321 320 319 319 319 320 321 321 321 322 318 320 317 311 312 312 315 316 318 321 325 325 322 319
318 318 318 319 319 320 320 321 323 325 327 328 329 331 330 330 331 330 330 330 330 328 327 327 324 321 320 320 321 320 321 319 318 319 318 320 319 319 322 321 323 323 324 324 324 326 324 324 324 326 327 326 327 325 325 326 327 328 328 326 323 322 321 321 319 319 320 319 321 319 319 318 318 315 317 316 315 312 312 315 317 317 319 319 318
318 318 318 319 319 320 320 320 323 326 327 328 330 330 330 330 330 330 329 329 328 328 326 324 324 321 320 320 319 318 319 319 320 321 319 318 317 317 320 320 320 321 322 323 323 324 327 323 323 324 325 326 328 324 324 325 326 327 326 324 323 321 322 321 321 320 320 319 318 317 318 316 315 316 316 316 315 313 312 313 312 316 316 316 314
319 318 319 319 319 319 320 320 322 324 327 329 330 330 329 329 329 329 328 328 327 326 324 323 322 321 319 319 319 318 319 318 319 317 316 316 316 315 317 318 318 318 318 320 322 322 324 324 322 323 323 324 327 325 323 324 325 326 326 324 323 322 321 322 322 321 321 320 321 318 315 314 314 315 314 314 315 315 313 312 314 315 313 313 313
319 318 318 318 318 318 318 318 319 323 326 329 329 329 328 328 328 327 327 326 325 323 322 321 320 319 319 319 319 318 317 318 316 314 314 315 316 314 316 315 316 316 317 317 318 319 320 323 322 322 322 325 327 324 323 325 324 325 325 324 323 322 320 320 321 320 321 320 318 319 318 317 316 314 314 314 314 313 313 313 312 313 313 312 310
319 318 317 318 315 316 317 318 321 324 326 328 328 329 328 328 327 326 325 324 322 321 321 320 320 319 319 319 318 318 318 318 316 315 315 315 315 314 313 315 315 315 315 316 316 317 319 318 320 321 322 323 325 323 323 324 323 324 324 324 323 321 321 321 320 319 320 320 319 318 319 318 315 316 316 316 315 316 316 312 310 311 311 308 308
318 318 317 316 314 315 318 319 321 323 324 327 328 328 328 327 326 325 323 322 321 321 321 320 319 318 319 319 318 318 319 318 317 316 314 315 314 314 315 315 314 316 315 315 315 315 316 316 317 319 321 322 321 320 320 321 322 323 323 323 322 321 321 320 319 320 320 321 320 318 318 317 315 316 316 315 316 317 314 311 310 310 309 307 308
318 318 316 314 315 317 318 320 321 323 325 327 327 327 327 325 325 323 322 321 320 320 320 319 319 319 319 318 317 319 318 319 318 317 314 315 315 315 316 316 316 317 315 315 314 316 314 315 316 316 317 318 318 318 318 319 321 322 322 322 321 321 320 319 319 319 319 319 319 318 318 317 316 316 315 316 315 314 313 313 310 308 309 308 304
319 317 315 315 316 317 318 320 322 324 325 326 327 327 326 325 322 322 320 320 319 319 319 319 319 319 318 317 318 319 319 319 318 317 315 315 314 315 315 315 316 315 316 316 316 314 313 313 314 315 316 317 317 318 318 319 320 321 321 320 319 318 318 318 318 319 319 318 318 319 317 316 316 315 315 315 316 316 315 313 312 308 306 307 304
318 316 316 316 316 318 320 321 322 324 325 326 326 326 325 324 323 322 320 319 318 318 317 318 319 319 317 316 317 318 318 318 317 316 315 316 315 315 315 315 315 314 314 316 314 313 313 313 314 313 314 315 316 315 316 318 318 318 318 318 318 319 318 317 317 317 318 317 318 317 318 318 317 316 315 315 315 316 316 316 315 313 309 304 302
314 313 314 316 318 319 321 322 323 324 324 324 324 325 324 323 322 321 320 318 317 317 317 317 318 317 316 316 316 316 316 317 317 316 316 315 316 315 315 314 314 315 316 315 313 312 311 312 313 313 313 313 314 314 314 315 316 318 316 316 317 317 318 317 316 318 317 317 317 318 319 318 318 316 315 315 314 315 316 316 317 315 313 307 302
316 316 317 318 319 320 321 322 323 323 323 323 323 324 324 323 322 321 319 317 315 316 316 317 317 316 315 315 315 316 316 316 316 316 315 315 314 315 314 315 315 315 316 316 313 313 315 316 312 312 312 312 312 311 312 312 313 312 312 311 311 315 316 316 317 317 316 316 317 317 318 318 318 317 315 314 313 314 314 315 314 313 312 308 304
314 315 316 317 317 318 319 320 321 322 322 323 323 323 322 322 322 322 320 318 316 316 317 317 318 318 317 316 315 315 315 315 315 316 316 315 314 314 314 314 314 315 316 313 312 311 310 310 311 310 311 310 309 310 310 310 311 311 311 310 310 311 312 312 312 316 315 317 317 317 316 318 318 317 316 315 313 312 312 311 309 310 310 309 307
314 314 315 317 317 319 320 320 320 321 321 322 322 323 322 321 320 319 318 318 317 316 317 316 317 317 316 316 316 316 316 315 315 315 315 314 314 314 314 314 314 314 312 312 311 310 309 309 309 309 309 308 308 307 308 309 309 309 309 309 309 309 309 310 310 311 314 315 315 315 315 317 317 316 315 315 312 311 311 309 308 308 306 307 309
312 313 314 315 316 318 319 320 320 320 320 321 322 321 321 320 319 319 318 318 318 319 320 319 318 317 317 316 315 315 314 315 314 314 314 314 313 314 314 314 313 312 311 310 310 309 308 309 309 310 308 307 306 307 307 308 309 308 308 308 308 309 308 308 310 309 310 312 314 314 314 315 316 316 315 315 313 311 310 309 308 307 305 305 307
312 313 314 315 316 317 317 318 320 319 319 319 320 320 319 319 320 319 319 319 318 319 319 318 318 317 317 316 315 315 315 315 314 313 313 313 313 313 313 312 312 310 310 310 309 309 308 307 307 307 307 306 306 305 305 307 308 308 308 309 308 308 308 307 308 308 308 309 310 312 312 314 315 315 314 314 314 312 309 308 307 306 304 304 306
311 312 313 314 315 316 317 318 319 319 319 319 319 318 318 318 319 319 319 319 319 318 318 318 317 317 317 316 316 315 315 315 314 313 313 313 313 313 313 312 311 309 309 309 308 307 307 307 307 306 306 306 306 305 305 305 306 307 307 307 307 307 308 308 308 307 307 307 308 310 310 311 312 314 313 313 313 313 311 308 308 306 305 304 304
312 313 314 314 315 315 316 316 317 318 318 318 318 318 317 316 317 318 318 318 318 318 318 318 317 317 316 316 316 315 315 315 314 313 313 313 313 313 313 312 310 309 309 308 307 306 306 306 307 306 306 306 306 306 305 305 306 306 307 307 306 307 307 307 307 307 306 307 307 308 308 310 311 313 311 310 310 312 312 311 309 307 306 303 304
306 307 309 311 312 313 313 315 315 316 316 316 316 317 317 317 316 317 318 318 318 318 317 317 316 316 315 315 314 315 315 314 314 314 313 313 313 313 313 311 310 309 308 308 308 306 305 306 306 305 306 306 306 306 306 305 305 306 306 306 307 306 307 307 307 307 311 307 308 308 307 308 309 311 308 308 308 310 310 311 310 307 305 304 304
302 302 303 304 306 308 310 312 314 315 315 315 315 316 316 316 317 317 318 317 316 317 316 315 315 315 315 315 315 314 315 315 314 314 313 313 312 312 312 311 310 309 308 307 307 307 308 306 306 305 305 306 306 305 306 306 306 306 306 306 307 307 307 307 307 308 306 307 307 307 307 308 308 310 309 308 307 308 308 309 310 308 305 304 304
299 299 300 301 301 302 305 307 310 313 315 315 316 316 316 315 315 316 317 316 316 316 316 316 316 316 315 315 315 314 315 314 314 314 315 315 313 312 312 311 311 310 310 309 307 308 309 307 306 305 305 306 306 306 305 306 306 305 306 306 306 306 306 306 306 307 306 305 306 307 307 307 308 308 308 308 307 307 307 308 309 308 304 304 304
297 297 298 298 298 299 302 305 308 311 314 315 315 315 315 314 314 315 315 314 315 315 315 315 315 314 314 314 314 314 315 315 315 315 315 316 315 315 313 311 309 309 309 310 310 309 308 308 307 306 306 307 306 305 304 305 305 305 306 305 306 307 306 307 307 306 307 306 306 306 307 307 307 307 308 307 307 307 307 307 306 306 305 305 304
296 295 295 296 298 298 299 302 304 306 307 309 310 312 312 313 315 315 315 315 316 316 315 314 314 313 313 314 315 315 315 315 315 315 315 315 314 314 314 314 313 312 312 311 310 309 309 309 308 307 306 307 307 307 307 306 306 305 305 306 306 307 307 307 307 307 306 306 307 307 306 306 310 312 309 307 307 307 308 307 306 306 305 305 304
294 294 295 295 296 297 298 299 299 300 301 302 302 302 304 305 306 309 312 315 316 315 315 315 314 313 313 313 313 313 314 314 314 314 314 314 314 314 313 313 313 313 313 311 308 308 307 307 308 307 306 307 307 307 310 306 306 307 305 306 306 306 306 307 308 307 307 306 306 306 310 315 312 311 307 303 301 303 306 308 308 307 306 305 305
294 294 294 295 296 297 297 297 297 298 299 299 299 299 300 299 300 300 302 303 305 304 305 306 308 310 311 312 312 312 312 313 313 313 313 313 313 313 312 312 312 312 312 312 312 311 308 307 307 306 306 306 307 308 304 300 299 301 306 306 307 306 306 306 307 307 307 308 307 307 306 311 313 312 309 300 299 299 299 301 302 304 306 307 305
293 295 295 295 295 295 295 295 296 296 297 298 298 298 298 298 298 298 299 300 301 300 300 300 301 302 302 302 303 302 303 305 306 307 308 309 309 310 310 310 310 310 310 311 311 311 310 309 308 308 307 307 307 302 295 295 295 296 301 307 306 307 306 306 306 306 307 307 307 307 307 308 311 310 309 307 303 300 298 299 298 299 299 300 301
294 294 295 295 295 295 296 296 296 297 296 297 298 297 297 297 297 299 298 298 298 298 298 298 298 299 299 299 300 299 298 299 299 300 300 300 300 301 302 303 304 306 306 306 306 307 308 309 309 309 308 306 307 297 293 293 293 292 294 300 305 307 307 306 306 306 306 307 306 307 308 308 309 313 313 308 307 306 299 298 298 298 298 298 297
294 295 295 295 296 296 297 297 297 297 297 297 298 297 297 298 298 298 297 297 297 297 297 297 297 297 298 298 298 298 297 297 298 297 298 297 297 297 299 300 300 301 300 301 302 302 303 305 306 307 307 308 309 299 295 294 293 293 292 295 303 305 306 307 307 307 307 307 307 307 308 309 308 310 312 308 306 305 303 302 303 304 306 303 297
292 293 295 295 295 296 296 297 297 297 297 297 297 297 297 297 297 297 297 296 296 296 296 296 296 297 297 297 297 296 296 296 296 296 296 296 296 296 296 297 297 297 298 298 299 299 300 301 302 304 304 305 307 296 295 294 294 294 293 297 305 305 306 307 308 307 308 308 308 308 308 309 309 309 309 309 307 306 304 304 304 304 304 303 304
293 293 293 294 295 295 295 296 298 297 297 297 297 297 297 296 297 296 296 296 296 296 296 296 296 296 296 296 296 295 295 295 296 295 295 295 294 294 294 296 296 295 296 296 297 298 298 298 300 301 301 302 304 294 293 294 295 294 296 305 305 305 306 308 309 309 309 309 309 309 309 309 309 309 305 299 302 307 305 305 305 305 302 300 300
294 295 294 295 296 296 296 297 297 297 297 297 297 297 296 296 296 296 296 296 295 295 295 295 295 296 296 296 296 295 295 295 295 295 294 294 294 294 294 295 294 294 294 295 295 295 296 297 298 299 299 300 301 297 293 293 294 294 298 305 306 306 306 306 308 309 310 310 310 310 309 310 310 310 304 298 296 300 306 306 306 306 304 301 301
295 295 294 294 294 295 296 296 296 296 296 297 297 297 296 296 296 296 295 295 295 294 295 295 295 296 296 295 295 295 294 294 294 293 293 293 294 294 294 294 293 293 293 293 294 294 295 295 296 297 299 297 298 297 293 293 293 293 297 303 304 305 306 306 307 308 309 309 310 308 311 311 310 311 302 298 294 301 307 306 307 306 305 303 303
294 294 294 294 294 294 294 294 294 294 295 296 296 296 295 295 295 295 295 294 295 295 295 295 295 296 296 295 295 295 294 294 293 293 293 293 293 293 294 294 293 293 293 293 294 293 293 293 294 295 298 296 296 297 294 292 292 292 297 302 304 305 305 305 306 306 308 308 308 308 307 308 310 308 300 298 294 301 308 308 307 306 305 304 305
296 295 295 295 296 295 293 293 293 293 294 295 295 295 295 294 294 294 293 293 294 295 296 295 295 295 295 295 295 295 294 293 293 293 293 292 293 293 292 292 293 293 292 292 293 293 292 293 293 294 294 295 296 296 296 292 292 292 293 299 303 304 304 304 305 306 306 307 308 308 306 299 296 296 296 296 294 295 308 309 307 306 306 306 306
295 294 295 293 294 294 294 293 294 294 294 294 294 293 293 293 293 292 292 293 294 294 294 294 294 294 294 293 293 294 294 294 294 294 294 293 293 292 292 292 292 292 292 292 292 292 292 292 293 293 293 294 296 295 295 292 292 292 292 294 300 302 303 304 305 305 306 306 307 308 308 302 297 296 295 295 295 292 296 307 307 307 308 306 298
295 295 294 293 292 293 293 293 294 294 294 294 294 293 292 292 291 291 292 293 293 293 293 293 293 293 293 293 293 293 293 293 293 293 292 292 293 293 293 292 292 292 291 291 291 292 291 292 292 293 293 293 294 295 294 293 292 292 291 292 296 298 298 300 302 304 305 306 307 307 307 303 298 296 295 294 294 293 291 301 306 299 298 293 302
293 293 293 293 291 292 292 292 293 294 294 294 294 292 292 292 291 291 292 291 291 291 292 292 292 292 293 292 292 292 292 293 292 292 291 290 290 291 291 291 290 290 290 290 290 290 290 290 290 291 292 292 292 293 293 293 292 291 291 291 290 293 291 297 300 301 303 305 308 308 307 301 297 296 295 294 294 293 293 298 296 295 295 293 296
292 293 293 293 292 292 291 292 293 293 293 293 293 292 292 291 290 292 292 292 291 290 291 291 291 290 290 291 291 291 290 290 291 291 290 289 289 290 290 290 289 289 289 288 289 289 289 289 288 289 290 291 292 292 292 292 292 291 291 290 290 290 290 294 297 299 302 304 306 308 306 298 296 295 294 294 292 292 297 294 293 293 294 294 301
290 291 292 292 292 291 291 291 292 292 293 293 293 292 291 290 290 291 290 290 290 290 289 289 289 289 289 289 289 289 289 289 289 290 290 290 289 289 289 288 288 288 288 288 288 288 288 288 288 288 289 290 291 291 291 292 291 291 291 290 290 290 289 290 293 296 298 300 298 295 293 292 293 293 293 294 294 293 291 291 291 291 294 300 300
291 290 291 291 291 291 291 290 290 291 292 292 292 291 290 288 289 289 288 289 289 289 289 288 288 288 288 288 289 288 288 288 288 288 289 289 289 289 289 288 288 287 287 287 287 288 288 288 287 288 288 289 290 290 290 291 292 292 291 290 290 290 290 291 291 293 292 291 290 291 291 291 293 295 299 302 302 302 294 291 290 292 299 300 300
289 290 291 290 290 289 289 289 288 289 291 291 291 291 290 289 288 287 288 288 288 288 288 287 287 287 287 287 288 288 288 288 287 287 288 288 288 287 287 288 288 287 287 287 287 287 287 287 287 287 288 288 288 289 289 290 290 291 291 291 291 291 291 291 292 294 293 295 295 295 295 293 293 292 293 293 295 295 296 296 295 296 299 300 299
287 289 290 290 289 289 288 288 288 287 289 290 289 288 287 287 287 287 287 288 288 287 286 286 286 286 287 287 287 287 287 287 287 287 287 287 288 288 287 288 288 288 287 287 287 287 287 287 287 287 287 287 287 288 288 289 290 290 291 291 290 290 290 290 291 293 294 295 296 293 292 294 294 294 293 293 293 294 293 293 295 297 298 298 297
287 286 287 288 288 288 288 289 288 287 287 288 287 287 286 286 287 286 286 287 287 286 285 285 285 285 287 287 287 287 287 287 287 287 287 287 287 288 287 288 288 287 287 288 287 287 288 288 287 287 286 286 286 287 288 289 290 289 289 290 289 289 290 290 290 290 292 293 294 294 293 292 292 290 290 290 291 293 292 294 296 297 297 297 296
285 287 287 288 288 287 287 288 286 286 286 286 286 287 287 287 286 286 286 287 286 285 284 284 285 285 286 286 287 286 286 286 286 286 287 288 286 289 288 287 288 289 289 289 288 288 289 289 288 288 288 287 287 289 289 289 289 289 289 288 288 288 288 289 289 288 289 289 290 290 291 291 290 289 290 289 289 290 289 292 292 292 294 295 295
285 286 286 286 286 288 287 287 286 285 286 287 286 286 286 286 286 285 286 285 285 286 285 284 285 285 286 286 286 286 286 285 285 286 286 286 287 288 288 288 289 289 289 289 288 288 288 288 289 288 288 288 288 288 288 288 288 288 288 288 288 288 288 288 288 288 288 289 290 291 291 290 289 289 289 289 288 288 290 291 291 291 293 293 291
Wind_Speed
9 11 11 11 12 13 13 12 7 11 20 25 20 20 19 16 14 12 10 9 8 7 6 7 7 6 5 6 5 5 5 4 3 3 4 4 5 5 5 5 5 5 5 5 5 5 4 5 5 4 4 5 4 4 5 5 4 5 5 4 7 7 5 4 5 5 9 7 7 8 8 6 4 6 6 3 3 4 6 4 3 4 5 5 5
10 8 11 11 10 11 7 10 8 7 4 4 4 4 10 12 13 12 10 10 9 8 7 7 6 5 5 5 5 6 5 4 3 3 4 4 5 4 4 4 5 5 5 4 5 5 5 5 5 5 5 4 4 3 4 5 6 6 6 4 2 6 4 4 3 3 4 6 7 5 7 7 5 5 6 3 3 5 5 3 2 4 5 4 5
8 11 12 11 12 9 6 7 4 2 0 3 2 4 8 10 10 10 10 10 9 9 8 7 6 6 6 5 6 4 3 3 3 3 3 4 3 4 4 4 5 4 5 5 5 5 5 5 5 4 4 5 5 5 4 5 5 7 6 6 6 2 3 3 1 1 4 4 4 5 3 3 0 3 4 4 4 5 6 4 3 4 5 5 4
13 12 12 11 9 7 4 5 4 2 4 5 5 6 6 7 9 9 9 9 9 9 8 7 7 6 5 6 5 4 4 4 3 3 4 4 3 3 3 5 5 5 5 5 4 5 6 6 5 4 4 4 4 5 5 5 6 5 4 5 7 6 3 4 1 0 4 8 3 1 2 2 5 3 5 3 4 7 6 3 3 6 6 6 3
13 11 12 9 6 6 7 6 3 6 6 7 6 6 5 6 8 8 8 9 8 8 8 8 8 7 6 6 6 5 5 4 4 3 3 3 4 3 3 3 4 4 4 4 4 5 4 4 5 4 4 4 4 4 5 5 4 5 5 6 7 7 5 3 4 1 4 1 6 5 4 1 2 3 4 4 4 5 5 2 4 6 6 6 6
13 12 12 10 8 6 8 6 7 8 8 6 5 6 6 6 7 6 6 7 8 9 9 8 8 8 8 7 7 4 5 5 6 6 3 5 5 2 3 2 3 3 3 4 4 4 4 4 4 4 3 4 4 4 3 3 4 5 4 5 5 3 7 6 4 1 2 3 2 2 4 4 7 4 3 3 4 6 5 2 4 5 6 6 6
9 8 10 10 9 10 11 9 11 11 7 7 6 6 8 7 7 6 7 6 7 8 9 8 8 8 9 9 7 7 7 3 1 2 5 3 5 5 4 2 2 4 3 3 4 3 4 4 5 5 4 4 4 3 4 5 5 6 3 4 3 4 5 5 6 3 3 1 1 0 1 2 7 8 3 5 4 3 5 4 4 5 6 6 5
13 13 12 11 13 17 18 18 12 7 6 7 7 7 9 9 8 7 6 6 6 7 8 7 8 7 7 6 6 6 6 5 4 4 3 4 5 4 5 3 3 3 4 3 4 4 4 4 4 4 4 4 4 4 5 4 3 4 4 4 4 4 5 6 5 5 7 4 1 2 3 4 3 3 5 6 6 6 4 5 5 5 7 4 4
14 13 12 14 18 15 9 4 3 5 5 6 7 8 9 9 9 8 7 7 6 7 7 6 7 7 7 7 6 3 4 5 5 4 5 4 6 3 4 4 3 2 2 4 4 5 5 5 5 5 5 5 5 4 4 4 6 5 4 3 4 4 5 4 5 5 5 4 5 4 5 4 4 4 5 4 5 6 4 4 4 3 7 5 4
11 12 14 15 13 9 7 4 6 4 4 5 7 9 9 9 9 9 8 7 7 7 6 7 6 6 7 7 8 6 6 5 5 6 5 4 5 3 3 4 4 2 2 3 4 4 4 5 5 6 5 5 4 5 4 4 4 5 5 5 5 5 4 4 6 5 5 4 5 6 4 4 4 3 4 6 6 4 7 6 5 6 6 3 4
11 11 11 13 3 1 2 3 5 6 4 5 6 8 8 8 8 9 7 6 6 6 6 7 6 6 7 7 8 8 7 8 7 6 6 5 6 4 4 3 2 4 3 1 2 3 4 4 5 5 4 5 5 5 5 5 5 5 4 4 4 5 5 5 3 3 4 4 5 6 7 8 7 6 7 5 6 7 8 6 4 4 5 5 3
11 11 11 8 3 3 4 5 6 6 5 5 5 8 8 8 8 8 7 7 6 6 6 6 6 6 6 7 8 8 9 8 9 8 7 7 6 6 3 4 2 1 2 3 2 2 3 3 3 4 4 4 5 4 4 4 4 4 4 5 4 4 4 5 4 4 5 4 5 5 6 5 4 5 6 6 9 9 10 9 6 4 4 2 0
12 12 10 5 2 3 4 5 6 7 6 5 6 7 8 8 8 8 7 6 6 6 6 5 5 5 7 7 7 7 8 8 8 8 6 7 6 6 5 5 4 4 2 3 2 2 3 4 5 5 4 4 3 4 3 4 4 5 5 5 4 5 5 5 5 5 5 5 4 2 3 4 2 2 6 6 5 8 10 9 2 2 3 2 1
12 11 7 6 4 4 4 5 6 6 7 5 6 6 7 7 6 8 6 6 6 7 7 7 7 7 6 7 7 7 7 8 7 8 6 7 7 7 7 7 7 6 5 4 3 2 2 2 3 4 3 3 4 4 4 4 4 5 4 5 5 5 4 5 5 5 5 3 4 3 3 4 3 4 6 7 8 9 8 11 7 4 3 3 1
11 9 9 12 11 8 7 7 7 7 7 6 5 7 7 8 9 8 7 5 7 8 7 7 7 7 6 6 8 7 7 7 7 8 8 7 6 7 6 6 6 5 6 4 3 3 3 4 3 4 4 4 4 4 4 5 5 4 4 4 3 3 4 4 4 5 5 5 5 5 4 3 4 5 6 6 8 9 10 10 10 9 4 3 1
8 7 6 4 6 8 8 8 8 8 8 7 8 8 8 7 9 9 9 6 4 6 6 7 6 6 6 7 6 7 6 6 6 6 6 7 7 6 6 5 5 5 3 4 2 3 4 4 4 4 4 4 3 4 4 4 5 5 4 3 3 2 4 5 4 5 5 6 5 4 4 4 4 5 6 7 7 7 9 8 9 10 11 5 1
8 2 4 9 8 9 8 8 7 8 6 6 7 9 9 8 8 9 7 6 6 5 6 5 5 5 5 6 7 6 8 8 8 8 7 4 4 4 6 4 4 4 4 2 4 2 3 4 4 4 4 4 4 4 4 4 4 4 5 5 4 4 4 5 4 4 4 5 5 6 5 4 5 4 5 6 6 5 7 8 8 11 9 10 7
10 10 8 9 10 11 9 8 8 9 7 8 6 8 8 7 8 9 8 7 5 6 6 6 7 6 5 6 5 6 7 7 7 8 6 6 3 3 4 5 4 3 4 3 3 3 3 3 4 4 4 4 4 4 4 4 4 4 5 4 4 4 4 2 3 3 4 4 5 4 4 4 4 5 6 6 7 7 6 6 5 3 8 11 7
10 10 10 8 9 9 9 9 9 8 10 9 7 8 7 6 7 8 8 6 6 5 6 6 6 6 6 7 7 6 5 5 5 6 6 6 6 4 5 5 4 3 5 4 4 4 4 4 4 4 4 5 5 4 3 4 3 4 4 5 3 4 4 3 2 3 3 4 5 5 3 4 3 5 5 5 5 6 5 5 4 5 4 7 9
6 8 11 10 8 9 9 8 8 8 9 9 9 8 8 6 7 9 10 10 11 11 9 6 4 7 7 6 4 5 6 7 6 7 7 7 6 6 6 5 5 4 4 4 4 4 4 4 4 5 5 4 5 4 4 4 4 4 3 4 3 4 4 3 2 2 4 4 5 5 4 4 4 4 5 5 5 5 5 5 5 5 5 4 6
4 5 6 9 9 9 8 8 8 7 6 7 7 9 9 9 10 11 11 11 13 11 9 9 6 4 6 7 7 6 7 6 6 5 7 7 6 5 5 5 4 4 5 5 5 5 4 4 5 5 5 4 4 4 3 4 4 5 4 4 4 4 5 3 4 3 3 5 5 5 6 5 5 6 5 4 5 5 4 4 4 5 5 5 6
4 6 7 9 9 8 7 6 7 7 6 7 8 8 9 9 10 10 11 12 13 11 8 4 5 7 7 7 6 5 6 6 7 6 6 6 6 6 6 5 5 4 5 6 5 4 4 5 5 5 5 5 4 4 3 4 5 4 4 3 4 4 5 4 4 4 4 3 5 6 5 5 5 6 6 6 5 5 5 5 5 6 5 5 4
5 7 7 8 7 8 9 8 7 9 9 7 6 7 7 8 8 6 7 8 9 9 6 5 5 6 7 7 7 6 6 6 6 5 5 5 6 6 6 7 5 5 2 4 5 5 5 5 5 5 5 5 4 4 4 4 4 5 5 4 4 4 3 3 4 4 4 4 5 5 5 5 5 6 6 5 5 6 5 6 6 5 7 6 5
7 7 7 6 7 6 7 8 8 8 8 7 6 5 4 4 6 7 8 8 8 8 7 7 6 6 6 7 7 6 7 6 7 5 6 5 6 5 4 5 5 5 5 3 4 5 5 5 4 4 5 4 4 3 4 4 4 5 5 4 4 5 4 4 4 4 4 4 5 5 5 5 5 6 6 5 5 5 6 6 6 5 5 7 6
8 8 8 9 8 8 8 8 7 7 7 7 6 6 4 3 4 6 8 7 7 6 6 5 4 7 6 6 5 5 7 7 7 6 5 4 4 4 3 4 5 4 4 5 3 4 4 4 4 3 3 3 3 3 2 3 3 4 5 5 4 4 4 3 4 2 3 5 4 4 5 6 5 5 4 5 5 7 6 6 6 6 6 6 5
9 8 9 9 7 6 7 7 8 7 8 8 7 7 6 6 6 5 7 7 7 9 10 9 7 6 6 7 6 6 7 7 7 7 6 5 5 4 4 3 2 5 3 3 5 3 3 3 3 3 3 2 2 2 2 3 4 4 4 4 4 4 3 2 3 4 3 4 5 5 5 6 6 6 6 5 5 6 6 6 7 6 6 5 6
9 8 7 8 10 9 8 9 8 8 9 9 9 8 7 6 7 6 6 6 5 7 8 10 9 7 8 6 6 7 7 7 7 7 7 7 6 5 5 3 2 0 2 4 3 3 2 3 3 3 2 2 2 1 1 2 3 3 4 4 4 4 3 1 1 2 1 1 3 6 5 5 6 6 6 7 6 6 6 7 6 5 5 6 5
8 8 10 10 9 9 9 10 9 9 10 10 10 9 9 8 8 8 8 8 7 7 6 6 6 7 7 6 5 5 7 7 6 6 7 6 7 7 6 5 3 2 2 2 1 1 0 1 2 2 2 2 2 1 1 2 2 3 3 2 3 3 3 2 1 1 1 1 1 1 4 6 5 5 5 4 5 6 5 5 4 5 6 6 6
10 7 7 8 11 9 10 12 11 12 13 12 11 10 9 9 9 9 9 8 8 8 7 7 8 8 7 7 7 6 5 5 6 6 6 6 7 7 6 6 4 3 3 2 0 0 1 2 1 1 1 2 2 2 2 3 3 3 3 4 4 4 4 4 3 3 1 1 2 1 0 1 3 5 7 5 4 2 5 6 5 6 6 6 5
8 6 9 8 8 11 12 13 13 13 12 12 11 11 10 11 10 10 10 8 8 8 8 9 10 8 7 7 8 6 7 7 7 7 6 5 5 6 7 6 4 4 5 5 5 4 3 3 3 2 1 2 2 2 3 6 4 3 3 2 4 4 4 4 4 3 2 2 2 2 2 2 3 4 5 7 9 7 6 4 5 8 8 6 7
8 7 8 8 8 8 12 14 14 13 12 11 11 11 12 12 11 11 11 9 12 12 12 12 10 9 9 8 8 8 7 8 6 7 6 6 6 5 6 5 5 5 7 7 7 7 5 4 3 3 4 3 2 1 1 4 4 3 2 3 2 2 3 5 4 4 4 4 3 3 3 3 3 3 5 6 8 8 9 7 8 8 6 9 9
11 10 8 10 10 10 12 12 13 12 12 12 11 11 14 13 11 11 9 10 13 12 13 13 11 11 12 11 10 10 10 9 10 9 8 7 7 8 7 7 7 8 6 6 8 6 6 6 6 6 5 5 5 7 10 9 8 4 1 2 2 1 1 1 2 3 4 4 5 5 4 4 4 5 5 5 5 5 7 7 8 10 9 7 4
9 10 9 11 13 12 14 14 13 12 10 11 10 14 14 12 14 10 9 13 14 14 14 13 12 12 11 10 11 11 10 11 10 9 8 9 10 10 10 9 8 6 7 10 8 8 8 7 8 7 7 6 6 10 11 10 9 9 7 4 1 3 2 3 3 3 4 4 4 4 5 5 5 6 6 5 5 6 3 2 4 7 7 8 7
8 8 7 8 11 12 11 11 13 12 12 11 12 14 12 11 12 12 14 12 13 13 13 12 12 12 11 10 9 10 11 9 8 9 9 10 10 9 7 7 7 8 9 9 9 9 9 9 8 8 7 8 8 10 11 10 10 9 9 5 2 4 3 3 5 5 5 5 5 5 5 6 5 6 6 6 6 6 5 3 4 5 6 6 5
7 9 8 6 8 9 10 11 11 12 11 12 12 11 12 13 12 14 13 14 13 13 13 12 12 11 10 10 8 9 9 8 8 9 10 10 9 8 9 7 8 8 9 8 8 8 8 8 9 8 8 9 9 15 15 13 11 9 9 6 4 3 3 4 5 4 5 5 6 5 5 6 5 5 6 7 7 7 6 6 6 6 6 6 5
5 5 4 5 7 8 9 10 8 11 12 12 12 11 13 12 12 13 12 12 12 13 12 11 12 10 10 9 10 10 10 9 9 10 11 10 10 9 9 7 7 7 7 6 7 7 8 8 8 8 8 9 9 15 15 16 15 12 8 6 5 4 5 5 5 5 5 5 4 4 5 6 6 6 7 8 7 4 5 6 7 6 5 4 4
4 3 1 3 5 9 8 9 10 10 11 11 11 12 12 12 12 12 12 11 11 11 11 10 10 9 8 8 8 9 9 9 9 10 10 9 9 9 8 6 8 7 8 8 7 6 6 7 8 8 8 7 8 11 14 14 15 14 10 6 6 5 4 5 6 6 5 4 4 4 5 6 6 7 8 9 9 7 5 5 7 7 5 4 6
6 4 5 6 6 7 7 10 12 11 9 9 11 12 12 11 10 10 13 12 11 10 9 9 9 8 8 8 7 8 9 9 9 9 8 7 6 6 7 6 7 7 7 6 5 6 6 6 7 7 7 7 7 9 13 13 13 13 8 6 5 5 6 6 7 6 5 5 5 6 6 6 7 8 8 8 9 9 7 8 7 8 7 7 7
6 6 8 7 7 8 8 9 12 12 9 9 11 12 12 11 8 8 11 12 10 8 7 8 7 7 7 7 7 8 8 8 8 7 7 7 6 5 4 5 5 5 5 4 5 5 5 6 7 6 9 9 7 8 12 12 13 13 10 5 5 4 5 6 6 8 7 6 7 6 7 7 8 9 10 10 11 10 8 8 9 7 8 8 10
5 5 5 6 6 10 11 12 12 10 8 9 10 13 13 10 9 8 11 10 8 6 5 6 6 6 7 6 7 7 7 7 7 6 6 6 3 4 6 5 5 5 5 5 5 6 7 6 5 6 6 6 7 7 9 12 11 11 11 7 5 4 5 7 7 6 8 8 7 7 8 8 9 11 11 10 10 12 9 8 7 8 8 10 4
4 5 6 7 8 9 9 10 9 8 8 8 10 12 12 9 8 10 10 7 5 4 5 6 6 7 7 7 6 6 6 6 6 6 5 6 5 5 5 5 5 5 5 6 7 6 6 7 6 6 6 6 6 7 7 10 10 10 9 7 4 4 5 6 7 7 6 7 8 8 7 9 10 10 11 11 5 10 9 7 7 8 9 5 7
4 5 6 7 7 8 9 10 8 8 8 8 10 12 10 8 8 9 5 3 4 4 5 5 7 7 7 6 6 6 6 6 6 7 8 7 6 6 6 6 6 7 8 8 7 7 6 6 6 6 7 7 7 8 8 9 10 9 9 8 5 5 6 6 6 6 7 7 7 8 8 9 11 9 10 11 10 7 9 6 8 10 6 9 6
5 6 6 7 8 8 8 7 6 7 7 8 11 12 9 8 9 6 3 3 4 5 5 5 5 6 5 5 5 6 5 5 5 5 6 6 5 6 6 6 7 7 7 7 7 6 7 7 7 5 4 6 6 6 8 8 10 10 7 5 4 4 10 6 6 7 8 9 7 7 8 10 12 11 9 10 10 8 7 9 12 11 9 10 8
4 5 6 8 8 7 7 5 5 5 6 7 11 10 9 9 8 3 4 4 5 5 5 5 5 5 5 5 5 4 4 4 4 4 4 5 5 5 5 6 6 6 6 7 6 6 6 7 7 7 6 5 5 5 7 10 9 10 10 7 3 2 5 5 5 6 7 8 9 9 8 12 12 11 10 8 9 8 8 11 12 12 12 9 6
5 5 5 7 9 9 7 7 5 6 6 7 8 10 9 9 3 3 4 5 5 5 5 5 5 5 5 5 6 6 6 6 6 6 7 6 6 6 6 6 6 6 6 6 6 6 6 6 6 7 8 8 8 8 8 10 13 12 11 11 11 9 4 3 5 6 7 8 9 14 16 14 14 14 14 11 7 9 11 10 10 10 9 6 7
6 6 6 7 7 8 9 8 6 5 6 6 6 8 10 4 2 3 4 4 5 5 6 5 5 4 5 4 5 5 5 5 4 4 3 3 3 3 4 4 4 4 3 4 4 4 5 5 4 5 5 6 7 7 8 8 9 9 9 11 13 12 11 9 6 7 10 13 13 14 15 14 13 12 10 8 7 8 6 8 9 9 7 8 7
6 3 5 7 7 7 7 6 5 3 5 5 7 6 6 3 3 3 3 4 4 5 5 4 4 4 4 4 4 4 4 5 4 4 4 4 4 4 4 4 4 4 4 4 4 4 5 5 5 6 5 6 6 7 7 7 7 7 8 9 10 11 13 12 9 6 5 6 8 8 7 9 9 11 10 8 7 5 4 3 3 5 6 6 7
3 3 5 6 7 8 6 6 5 2 3 4 5 4 4 3 3 3 3 4 4 4 4 4 4 3 3 3 4 4 4 4 4 3 5 5 4 3 4 5 4 4 4 5 4 5 5 5 6 6 5 5 6 6 7 8 8 8 8 7 7 8 8 7 8 8 7 8 8 6 7 5 5 5 4 3 2 2 3 3 4 5 5 5 6
5 3 4 6 6 6 6 6 4 2 3 4 4 3 2 3 2 2 3 4 3 3 4 4 4 4 5 4 5 5 4 5 6 6 5 3 3 5 4 5 4 3 4 4 4 5 6 5 5 5 5 6 6 7 7 7 9 10 10 9 9 9 9 9 8 9 9 10 7 6 6 5 4 3 3 4 3 2 2 2 4 5 5 6 7
3 4 4 5 4 6 6 6 4 3 3 3 3 3 2 2 2 2 3 3 2 3 3 3 3 3 3 4 4 4 4 4 4 4 6 7 2 3 4 3 6 6 7 8 6 5 6 5 5 5 5 6 7 8 11 13 13 14 15 16 15 14 13 11 13 15 9 7 5 5 4 5 4 3 3 3 3 3 2 3 3 3 6 6 7
2 5 4 5 4 4 5 4 4 3 4 4 4 4 3 3 2 3 4 3 3 3 3 2 1 1 1 0 0 2 2 2 2 3 4 4 8 4 4 8 8 9 9 9 9 10 10 9 6 6 7 10 13 13 13 14 14 15 16 16 16 16 15 14 12 8 4 3 5 5 5 4 4 4 4 4 3 3 3 3 3 3 5 6 6
Wind_Direction
151 144 147 163 179 194 182 191 230 205 191 177 184 183 170 161 155 154 152 149 144 141 143 141 138 138 134 147 146 141 138 129 121 131 142 153 146 144 153 155 159 157 162 158 159 157 150 152 145 142 144 154 157 160 147 120 128 141 131 114 120 115 104 108 128 119 108 84 76 75 72 80 81 67 76 100 137 73 70 54 71 80 80 76 85
152 148 165 177 194 200 195 183 197 217 286 335 194 179 155 151 155 151 151 150 151 151 146 149 152 158 154 151 133 139 141 145 145 157 158 146 144 149 153 160 159 161 156 156 150 154 157 159 153 151 157 158 152 143 126 128 136 141 137 95 72 130 132 160 168 102 54 127 124 99 73 63 57 70 81 108 90 84 79 75 55 77 82 97 106
156 163 170 190 200 188 195 191 175 183 73 149 213 156 156 155 156 152 152 152 149 147 148 151 150 145 148 138 141 122 99 115 127 161 143 127 135 149 149 152 156 159 159 156 150 160 160 160 158 152 159 149 149 163 166 149 151 155 162 141 132 90 123 156 128 94 131 119 102 102 118 121 338 65 69 64 94 88 96 112 193 128 92 67 81
165 168 173 199 201 180 184 191 200 174 166 167 173 158 152 153 155 152 150 149 145 149 151 144 138 125 106 121 117 112 143 131 99 111 110 106 121 136 141 147 157 158 158 154 149 157 162 164 155 156 162 152 164 179 177 177 153 158 150 152 140 137 150 188 171 127 140 140 99 99 157 114 114 71 80 24 49 87 106 160 137 85 96 108 95
161 170 175 201 195 195 196 206 185 192 179 174 164 150 148 151 156 155 147 144 143 144 142 133 125 105 105 95 96 82 78 104 114 79 104 135 110 116 152 138 144 145 148 143 147 150 143 148 153 156 151 148 176 184 191 194 174 157 160 153 170 153 162 165 204 226 147 79 140 120 72 94 208 146 127 51 33 67 77 115 121 109 118 118 113
163 169 176 189 188 190 213 201 200 197 183 162 145 137 127 135 143 143 132 133 142 144 142 142 139 135 131 135 138 121 127 140 163 164 134 141 158 130 101 131 134 135 140 133 130 137 141 148 148 149 150 152 180 190 195 196 194 167 174 174 169 180 154 155 178 268 142 73 117 149 165 173 161 182 101 119 39 58 75 70 96 108 108 105 101
156 173 181 180 189 201 213 211 202 194 167 147 134 126 121 129 134 135 134 135 140 144 148 143 139 145 153 158 152 153 153 178 99 118 145 109 103 118 127 108 113 130 121 123 130 136 135 147 155 158 157 155 177 172 198 206 202 198 161 172 187 130 127 161 178 168 119 29 30 289 142 95 149 139 146 116 101 47 50 28 49 64 75 94 94
167 180 187 186 191 202 202 205 193 172 132 135 126 124 128 133 131 133 133 139 145 147 150 148 145 149 144 133 140 149 150 152 138 114 89 110 90 95 113 98 90 109 126 136 144 144 147 154 153 157 160 169 168 175 197 208 208 208 205 188 153 163 166 167 175 168 172 166 57 68 77 100 97 59 130 144 130 129 100 74 60 69 73 39 63
172 176 180 191 205 208 213 194 116 115 131 137 128 125 126 131 130 132 139 144 146 152 143 141 142 149 142 136 129 110 117 114 103 94 98 98 93 64 94 103 85 85 135 156 162 159 163 165 163 164 169 173 184 171 185 191 197 198 196 179 177 175 188 165 156 186 178 158 125 62 78 72 70 55 99 84 130 124 103 119 121 60 68 40 40
175 184 190 202 210 198 198 148 116 105 103 121 117 121 125 131 137 141 148 151 148 146 140 139 143 140 133 135 131 119 107 94 100 102 104 102 98 94 111 116 112 104 149 179 167 175 166 159 166 175 180 177 180 182 173 186 203 203 201 197 187 185 190 172 185 189 188 156 161 148 127 111 76 80 67 105 67 57 139 143 145 133 120 29 23
176 191 201 213 207 145 100 95 91 95 103 117 123 122 125 129 136 141 142 136 139 142 143 145 143 144 138 142 137 130 125 121 110 102 107 101 115 118 126 132 132 152 156 127 164 162 162 165 168 181 178 179 180 168 179 190 198 205 202 196 188 184 182 190 189 171 165 160 159 162 160 167 168 169 172 154 137 122 116 130 94 51 118 116 11
178 189 204 209 138 93 87 95 109 112 119 126 122 121 125 127 133 132 134 137 134 138 138 143 145 144 140 143 141 139 136 136 133 139 140 136 132 129 134 119 104 77 90 114 98 111 134 148 165 170 178 179 191 179 175 187 187 189 188 193 195 187 178 180 175 166 180 185 185 176 181 184 164 162 160 143 140 147 140 143 135 132 84 68 159
183 189 195 182 105 88 110 109 110 122 119 123 120 121 122 124 131 134 135 133 134 138 139 137 141 148 149 146 139 140 139 137 140 138 146 136 139 134 142 138 141 126 177 136 151 133 145 137 140 164 180 191 176 166 171 172 174 185 198 199 181 184 192 185 178 184 175 190 198 161 152 178 183 67 115 123 109 127 131 126 93 90 119 109 43
185 184 158 97 119 137 114 113 109 107 107 106 113 118 117 118 123 120 126 134 138 140 143 148 157 156 157 150 144 142 143 143 143 140 150 150 154 154 157 160 164 170 175 175 190 131 95 117 138 142 144 141 145 142 131 143 158 174 182 186 192 195 176 189 195 173 151 131 133 144 150 152 133 120 121 128 132 129 138 137 136 62 70 110 28
185 166 153 175 171 145 125 120 113 112 105 106 112 119 121 128 124 140 134 148 151 148 145 151 155 155 157 151 145 146 144 145 147 145 149 156 168 155 163 159 155 171 165 172 165 126 117 104 113 116 120 119 114 112 111 119 134 136 157 180 164 159 171 172 184 163 150 148 143 156 148 139 143 144 139 142 149 147 145 149 138 124 64 53 29
185 160 159 125 96 107 116 119 123 119 112 118 126 122 121 126 136 144 144 152 149 140 145 152 150 144 142 136 137 132 131 131 131 137 151 159 163 160 161 164 157 151 155 137 177 130 120 100 97 104 111 105 96 97 102 110 121 121 112 122 137 159 155 176 189 168 149 150 149 142 126 146 141 150 149 149 157 156 148 154 152 144 146 154 19
337 25 87 102 91 87 95 107 112 110 102 104 123 126 121 127 132 133 132 136 149 147 134 123 116 119 119 124 128 132 143 151 154 156 158 157 148 153 147 148 136 139 144 132 126 78 93 105 100 100 86 81 80 79 91 103 108 112 127 132 145 180 168 185 174 177 144 144 150 165 162 149 143 136 134 140 143 149 159 160 163 161 158 145 156
39 51 43 53 71 77 79 86 97 108 106 96 95 107 116 126 134 135 137 134 124 117 113 113 109 105 114 118 127 148 154 148 146 146 135 126 115 120 117 127 149 147 134 124 114 100 73 73 96 85 84 71 70 63 82 98 101 93 115 114 161 165 144 141 183 157 130 140 148 153 141 147 150 142 148 145 147 153 157 164 155 140 151 154 156
78 68 59 57 71 82 89 91 98 108 111 108 102 98 106 114 131 136 131 125 124 115 111 104 107 121 133 142 143 138 126 116 108 111 121 129 139 145 140 141 129 131 121 125 118 100 97 75 90 97 82 80 73 68 69 79 97 106 98 114 104 122 129 158 213 136 139 149 153 152 133 138 125 123 119 121 129 141 149 134 121 126 131 143 144
101 108 116 119 102 103 110 108 105 104 107 111 111 108 101 92 74 63 64 60 57 58 56 59 126 141 143 131 112 109 111 114 120 133 137 145 151 146 138 138 153 132 123 125 118 116 114 105 94 103 93 87 89 74 87 89 77 69 70 80 69 98 101 129 132 104 138 146 145 142 150 142 116 112 120 127 130 133 138 132 134 128 114 120 132
97 98 100 98 104 97 92 99 98 95 98 98 100 101 102 98 99 102 105 100 100 112 134 167 154 123 122 124 118 113 113 115 114 131 141 143 140 135 140 146 129 134 136 127 122 122 113 113 110 102 103 95 96 85 82 105 93 85 58 80 74 93 106 98 112 90 108 146 151 147 162 144 141 133 138 130 127 137 124 106 120 130 130 138 138
79 96 84 95 97 85 85 89 102 99 94 103 107 104 115 122 125 133 134 131 136 148 162 124 124 143 138 114 108 111 123 129 130 138 143 137 132 135 142 136 138 150 140 134 127 124 115 112 105 106 102 97 88 82 71 103 105 93 74 67 81 82 95 96 99 102 101 125 146 147 166 145 153 141 147 153 143 140 148 136 154 163 163 168 186
65 74 81 91 100 112 118 122 125 122 123 126 131 134 141 138 127 120 108 119 135 142 140 134 137 135 124 122 128 132 134 132 123 120 116 117 131 142 152 144 145 139 117 127 135 124 122 110 97 100 105 95 93 84 62 91 96 107 100 71 88 98 90 111 110 113 113 122 125 147 163 146 147 148 159 154 153 157 157 169 173 178 177 183 192
55 55 61 70 80 86 96 108 121 126 130 127 111 100 100 123 131 118 120 140 139 142 146 145 140 123 123 130 131 135 127 118 107 110 121 132 136 142 148 136 137 133 121 102 109 121 118 117 111 101 107 117 100 96 81 90 116 116 106 103 88 93 92 67 73 91 104 121 143 136 154 150 152 161 158 155 156 159 176 184 178 182 180 187 192
44 46 50 57 61 76 104 118 111 109 109 101 93 97 106 96 95 119 129 142 131 106 83 65 83 100 103 104 99 107 112 106 106 104 98 99 111 122 122 130 125 117 127 113 100 107 104 109 123 132 122 123 139 139 127 113 114 121 126 125 101 88 98 115 119 138 133 129 139 150 154 143 144 154 156 163 165 181 189 183 189 180 189 185 186
57 46 52 53 50 48 45 57 84 86 86 81 79 77 70 72 75 94 114 114 109 111 113 111 112 132 130 117 110 96 95 102 98 87 83 73 65 60 62 51 81 134 127 129 137 124 130 119 123 148 148 140 140 153 157 165 157 143 122 122 123 117 130 143 141 125 163 155 141 142 156 148 150 171 193 183 175 190 181 197 198 193 176 167 184
57 52 55 59 55 51 56 55 54 79 88 87 80 74 72 67 62 62 75 81 85 103 119 136 155 128 95 74 93 104 106 98 92 93 83 68 55 51 49 46 63 72 142 143 143 135 152 144 160 152 155 143 133 131 145 144 139 139 141 130 129 120 120 98 359 63 65 7 135 142 153 164 166 175 175 185 180 178 188 201 200 184 162 155 169
46 51 57 62 61 52 50 65 59 65 71 74 73 69 66 67 63 58 62 65 60 75 80 78 75 79 74 65 45 68 89 96 100 89 77 81 73 55 41 23 25 53 50 31 12 358 228 150 174 159 139 137 125 110 101 100 109 139 138 140 144 154 137 128 90 30 47 10 344 128 154 168 170 169 171 183 180 178 171 187 178 162 162 162 172
72 48 45 63 73 67 60 61 61 63 64 64 67 67 64 63 60 64 67 77 87 82 77 71 66 68 78 89 84 77 77 90 94 94 83 75 83 81 69 50 21 24 32 32 28 110 266 259 269 143 135 138 154 163 166 162 145 145 157 161 168 160 164 165 169 176 102 359 349 352 325 266 209 180 170 163 181 185 172 175 185 169 167 169 162
70 53 64 55 59 70 68 66 66 67 66 71 72 70 68 65 56 56 56 58 74 73 72 69 69 65 59 65 72 67 79 82 76 74 74 77 82 90 84 70 39 27 47 42 47 43 23 331 296 280 182 176 192 181 170 166 164 154 166 150 146 158 160 163 168 175 229 263 262 297 299 239 229 215 201 189 186 197 204 211 189 172 169 168 174
20 42 54 47 40 42 65 68 66 65 65 65 70 75 72 64 61 59 59 59 72 68 64 58 48 44 46 50 58 60 57 63 69 74 71 60 52 53 65 67 50 37 45 42 43 41 32 30 29 351 328 307 304 333 120 165 166 139 132 146 157 205 169 159 167 177 193 214 232 216 219 248 236 236 214 215 212 209 208 210 188 209 201 175 168
41 10 36 41 42 45 57 63 68 65 67 66 66 69 71 66 62 60 63 70 71 68 68 65 59 55 51 47 42 46 55 53 49 47 49 53 55 51 43 36 30 30 33 44 40 29 31 28 34 38 34 9 1 10 7 4 12 16 85 130 122 126 120 7 266 218 226 201 203 210 222 209 203 214 216 216 222 224 219 219 202 195 208 235 242
47 28 4 57 56 47 59 63 69 59 58 63 73 77 73 76 73 68 71 71 70 68 66 63 59 60 58 53 55 52 42 47 49 48 46 54 55 51 40 34 31 24 43 45 33 35 28 24 32 30 24 21 34 20 32 36 37 36 15 331 247 156 158 193 190 220 247 270 277 246 230 214 210 201 196 198 204 218 214 194 196 204 210 210 218
24 46 12 59 76 78 66 63 68 70 66 67 60 72 74 74 77 69 67 63 69 66 66 65 63 59 58 56 54 61 55 45 44 50 50 51 51 50 45 39 39 39 46 41 35 35 29 29 28 29 24 25 30 17 36 39 39 39 36 42 348 310 279 222 202 196 210 222 225 230 254 259 227 207 197 186 187 192 193 176 177 185 201 202 215
22 13 359 32 65 75 77 72 67 70 69 70 64 63 73 68 67 68 61 68 66 70 66 63 64 60 60 61 57 58 56 47 43 47 51 49 44 38 37 31 38 42 42 41 33 35 30 28 26 28 37 33 24 16 24 29 32 31 26 28 18 3 329 303 296 269 240 225 217 218 224 249 269 246 230 205 194 192 182 193 195 214 209 201 200
38 36 343 24 46 62 69 75 72 74 75 71 73 66 67 67 65 68 64 61 66 70 70 64 63 59 57 58 64 65 62 56 48 47 48 44 40 34 28 17 34 38 39 43 40 42 36 31 28 32 41 35 24 24 26 24 19 16 14 26 15 9 345 329 312 299 287 282 286 261 237 242 247 251 254 230 226 193 185 200 211 218 215 221 234
32 54 20 47 59 69 67 75 75 72 74 75 78 76 70 65 66 66 66 61 59 62 65 66 67 64 58 54 56 62 62 59 56 55 49 42 38 31 30 24 38 34 34 32 32 36 33 36 32 33 39 37 28 24 28 25 22 12 11 13 11 1 346 330 306 301 297 280 257 240 239 252 251 250 245 220 212 176 206 223 234 232 225 216 243
20 33 66 69 69 74 72 79 82 72 72 83 82 79 79 71 65 72 77 68 60 55 56 60 64 61 59 56 56 64 66 59 56 56 53 46 38 35 31 25 45 37 36 24 19 32 36 39 39 35 32 35 26 20 27 25 26 20 13 3 351 349 334 327 314 307 302 292 264 244 231 234 244 254 258 221 193 177 201 217 220 234 232 236 254
21 16 29 47 68 78 77 72 73 74 67 74 83 88 82 76 72 73 78 80 71 58 51 59 55 56 55 53 52 56 62 68 66 59 56 51 44 41 26 25 34 44 50 39 37 36 29 29 30 32 34 37 20 11 18 23 22 17 15 5 359 347 332 318 319 313 311 301 297 285 256 235 226 235 234 220 193 185 208 211 221 222 235 234 240
29 28 32 43 61 73 68 69 73 74 74 80 87 85 83 81 68 62 70 72 77 82 81 75 71 66 65 57 55 56 53 55 62 67 64 60 46 41 32 30 27 32 29 28 26 32 31 27 23 29 29 36 27 11 9 11 24 25 18 7 354 351 331 319 316 308 309 306 302 298 294 281 262 258 251 231 201 193 200 208 203 215 221 240 196
33 29 42 61 58 68 75 78 81 81 79 79 83 82 80 78 79 73 67 65 75 84 85 84 80 72 67 63 55 58 60 55 53 56 55 52 40 36 33 37 35 27 33 28 27 20 19 11 11 16 19 19 20 14 8 12 15 20 21 20 6 350 325 311 305 299 288 290 296 295 294 291 282 276 276 274 231 199 212 212 212 211 221 189 133
34 29 45 58 64 74 80 77 74 82 85 86 86 85 87 87 82 77 78 77 74 71 72 73 71 69 65 60 57 49 46 47 42 42 46 40 28 29 29 28 22 22 22 21 17 16 10 6 3 5 9 1 3 6 357 356 8 15 18 21 16 347 333 313 303 294 291 278 270 282 285 282 282 274 270 272 263 212 199 221 227 230 215 152 157
48 51 45 73 74 69 70 77 78 83 87 92 90 88 88 84 77 70 58 58 61 64 71 74 73 72 70 69 65 61 58 56 53 50 53 44 24 27 25 28 29 26 25 16 12 4 2 355 349 355 357 351 350 347 352 345 347 356 14 43 22 347 333 330 322 309 303 294 285 274 271 275 278 276 263 260 261 247 191 218 226 234 228 188 155
59 76 89 88 84 79 71 57 58 63 69 75 85 85 80 76 66 29 49 61 65 68 72 70 64 60 56 51 50 53 58 60 65 66 66 55 32 26 29 27 26 28 20 12 1 359 357 355 346 335 341 342 340 339 335 338 338 340 341 352 16 353 316 318 309 290 292 294 293 288 288 294 296 293 286 260 249 234 222 222 216 220 225 210 177
92 83 92 98 104 101 90 68 47 58 62 67 76 87 80 75 43 43 63 77 81 81 80 72 63 52 45 35 32 29 26 25 24 30 32 25 19 18 17 8 17 16 18 12 351 357 353 341 343 335 332 334 338 339 334 332 332 334 337 336 336 338 328 270 291 293 285 285 292 301 306 306 305 302 296 289 253 230 226 220 215 207 205 196 193
81 84 89 100 97 91 89 81 53 41 59 64 69 86 87 89 41 46 56 73 75 74 70 67 62 56 46 40 42 26 26 24 24 31 41 44 40 20 14 354 20 10 5 356 335 337 330 325 315 314 312 312 320 324 322 322 325 328 328 328 329 327 326 323 284 264 271 278 284 287 290 294 294 290 285 270 263 262 240 218 206 191 196 194 192
97 112 109 98 97 93 92 90 76 30 60 68 75 71 93 111 88 77 76 80 81 83 81 75 69 62 47 48 49 33 19 15 16 10 16 23 19 24 4 350 352 350 347 331 331 326 321 316 314 311 308 311 314 316 314 314 317 318 317 321 328 326 326 328 331 317 300 286 280 279 281 286 283 284 281 274 272 258 237 201 170 187 198 195 187
94 115 113 102 105 112 112 105 103 89 77 81 80 86 91 94 92 91 89 80 76 80 83 75 64 58 54 55 51 36 32 12 4 14 8 359 2 24 5 333 328 321 319 315 307 304 296 298 299 299 305 311 304 306 303 302 306 310 310 310 315 312 310 314 313 313 315 311 304 291 285 275 284 292 289 312 306 281 241 193 189 187 184 168 155
76 62 98 115 121 114 116 114 120 117 92 87 94 97 109 114 119 108 87 75 64 56 58 49 32 36 23 21 26 21 12 9 356 354 347 318 300 333 325 310 276 205 208 241 265 263 269 262 252 268 286 291 294 284 275 268 272 283 291 301 309 309 308 302 288 294 305 303 294 288 284 278 257 257 266 255 261 193 260 226 189 171 159 154 152
73 93 96 96 103 124 128 129 148 151 135 128 132 149 174 172 148 136 97 89 85 68 62 42 41 43 13 14 7 0 354 6 360 349 340 333 278 247 246 230 293 292 260 246 216 238 256 269 264 262 239 257 270 267 272 278 282 284 285 283 282 283 281 281 289 296 289 275 270 266 261 255 253 231 235 229 223 200 179 181 193 170 164 166 170
70 94 76 86 94 111 122 128 155 168 161 154 151 164 161 175 170 143 111 120 129 111 103 99 89 91 143 135 47 354 3 359 351 350 344 335 328 336 233 253 242 260 276 283 286 274 277 279 266 272 268 249 254 264 274 279 283 284 282 286 290 294 294 289 284 298 289 231 250 251 257 250 243 221 221 230 201 202 190 180 188 181 184 177 173